Location: Wyoming Infrared Observatory
(41.0971°N, 105.9765°W)
Time: 00:16:32
(UTC-06:00)

Daily predictions for brighter satellites

Satellite Brightness Start Highest point End
(mag) Time Altitude Azimuth Time Altitude Azimuth Time Altitude Azimuth
ASTEX 1 4.4 00:00:11 10° NNE 00:04:30 31° E 00:04:30 31° E
H-2A R/B 3.4 00:03:54 10° NNE 00:07:11 38° ENE 00:07:11 38° ENE
Cosmos 2074 Rocket 4.4 00:06:47 41° ESE 00:08:00 46° E 00:13:58 10° NNE
Meteor 1-26 Rocket 4.4 00:03:14 10° N 00:08:45 58° ENE 00:09:47 50° ESE
Cosmos 2297 Rocket 2.1 00:07:31 55° SSW 00:08:50 89° SE 00:14:31 10° NNE
COS B Rocket 3.5 00:05:45 10° N 00:08:54 65° N 00:08:54 65° N
Cosmos 2221 Rocket 3.5 00:06:12 10° N 00:10:47 84° E 00:10:51 84° ESE
Cosmos 192 4.3 00:07:59 10° NNW 00:12:52 66° WSW 00:13:10 64° SW
Cosmos 1709 Rocket 4.0 00:12:07 45° SSW 00:14:02 71° W 00:20:09 10° N
Cosmos 1703 Rocket 3.5 00:09:55 10° N 00:14:10 82° WNW 00:14:10 82° WNW
GEOS 3 Rocket 3.5 00:16:47 64° SE 00:17:38 89° NE 00:22:51 10° NW
Cosmos 2219 Rocket 3.1 00:14:18 10° NW 00:19:18 34° WSW 00:20:07 32° WSW
Okean 1-7 3.2 00:15:11 10° N 00:19:09 64° NE 00:19:09 64° NE
CZ-2C R/B 4.0 00:19:30 10° NE 00:23:38 24° E 00:23:38 24° E
COSMOS 2455 2.8 00:17:46 10° NNW 00:23:49 76° ENE 00:25:13 54° SE
H-2A R/B 4.2 00:21:57 14° WSW 00:23:50 16° W 00:27:08 10° NW
ATLAS 2AS CENTAUR R/B 3.0 00:19:59 30° SW 00:24:12 83° NW 00:32:20 10° NNE
Cosmos 389 Rocket 3.6 00:27:06 10° N 00:29:41 44° N 00:29:41 44° N
Cosmos 1980 4.5 00:27:59 10° NW 00:33:07 37° WSW 00:33:40 36° WSW
Cosmos 2181 Rocket 4.3 00:27:48 10° NNW 00:34:02 59° W 00:35:40 46° SW
Cosmos 1269 Rocket 4.0 00:31:03 10° NNW 00:36:19 65° WSW 00:36:40 63° SW
Cosmos 1933 4.4 00:32:47 10° NNW 00:36:07 37° WNW 00:36:07 37° WNW
Geosat 4.1 00:32:29 10° NE 00:37:15 57° ESE 00:37:15 57° ESE
Helios 1A Rocket 3.8 00:35:04 10° NNE 00:38:19 42° ENE 00:38:19 42° ENE
MOS 1-B Rocket 4.5 00:38:15 38° ESE 00:39:48 46° ENE 00:45:08 10° N
Meteor 2-3 Rocket 3.6 00:39:57 66° SSE 00:40:44 77° E 00:46:29 10° NNE
Cosmos 1892 3.9 00:46:48 35° NE 00:46:48 35° NE 00:49:23 10° NNE
Cosmos 2184 Rocket 3.9 00:44:41 60° S 00:45:55 87° E 00:52:09 10° N
Cosmos 2237 Rocket 3.2 00:41:31 10° NW 00:46:28 31° WSW 00:46:54 31° WSW
ATLAS 3B R/B 2.5 00:40:55 10° NW 00:47:56 80° WSW 00:49:26 57° SSE
USA 238 DEB 4.2 00:42:59 10° NNW 00:49:55 56° NE 00:53:37 28° ESE
USA 238 4.2 00:43:06 10° NNW 00:50:00 55° NE 00:53:46 27° ESE
CZ-4B R/B 2.8 00:51:29 38° NNW 00:51:29 38° NNW 00:53:47 10° NNW
SL-08 ROCKET BODY 4.4 00:52:31 62° S 00:53:41 87° E 00:59:53 10° N
Cosmos 1689 Rocket 4.2 00:59:16 28° NW 00:59:16 28° NW 01:01:05 10° NNW
NOSS 2-3 (E) 3.8 00:58:42 79° SW 00:59:01 88° NW 01:04:41 10° NE
Cosmos 1782 3.9 00:56:25 10° N 00:59:38 38° NE 00:59:38 38° NE
Sich 1 Rocket 4.4 01:05:17 42° ENE 01:05:17 42° ENE 01:09:10 10° NNE
BREEZE-M TANK 3.6 00:56:55 10° W 01:05:33 53° N 01:08:31 10° ENE
Aureole 2 Rocket 4.3 01:03:44 10° NNW 01:05:16 27° N 01:05:16 27° N
Cosmos 1340 Rocket 3.4 01:08:03 53° NNE 01:08:03 53° NNE 01:11:07 10° N
Cosmos 1825 4.1 01:17:09 22° ENE 01:17:09 22° ENE 01:19:27 10° NE
USA 234 4.3 01:11:05 10° E 01:17:10 43° NNE 01:23:15 10° NW
SeaSat 1 4.3 01:18:03 18° W 01:18:03 18° W 01:20:45 10° WNW
Cosmos 44 Rocket 3.4 01:17:56 68° WSW 01:18:27 75° WNW 01:23:43 10° NNE
BREEZE-M DEB (TANK) 3.8 01:19:51 26° NW 01:20:45 32° N 01:25:51 10° ENE
ALOS 2 4.0 01:21:24 27° W 01:21:24 27° W 01:24:35 10° NW
Coronas F rocket 4.4 01:24:35 17° N 01:24:35 17° N 01:25:20 10° N
Cosmos 1733 Rocket 3.3 01:23:10 66° NW 01:23:10 66° NW 01:27:20 10° N
Cosmos 1408 4.4 01:24:16 25° ENE 01:24:16 25° ENE 01:26:45 10° NNE
Cosmos 2227 Rocket 4.5 01:22:11 10° W 01:25:57 18° NW 01:29:43 10° N
NOSS 2-3 (C) 4.5 01:25:05 44° W 01:26:17 55° NW 01:31:57 10° NNE
Lacrosse 4 Rocket 3.0 01:24:33 10° NW 01:27:15 27° WNW 01:27:15 27° WNW
Cosmos 2333 Rocket 4.5 01:29:50 10° W 01:31:04 11° W 01:31:11 11° W
Cosmos 2263 Rocket 3.3 01:33:39 30° ESE 01:34:12 30° ESE 01:39:06 10° NE
Cosmos 1378 Rocket 3.8 01:32:50 10° N 01:37:04 60° ENE 01:37:04 60° ENE
SL-16 R/B 3.4 01:32:57 10° NW 01:37:24 27° W 01:37:24 27° W
Cosmos 2227 4.3 01:36:57 54° WSW 01:38:01 66° WNW 01:43:41 10° NNE
Meteor 1-27 Rocket 3.8 01:32:42 10° N 01:38:36 75° E 01:39:47 57° SE
Cosmos 1356 Rocket 3.9 01:39:15 52° NW 01:39:15 52° NW 01:42:39 10° N
Okean 3 4.1 01:36:08 10° N 01:40:19 48° E 01:40:22 48° E
Cosmos 1862 3.9 01:41:49 54° NE 01:41:49 54° NE 01:45:12 10° NNE
NOSS 3-4 (A) 3.9 01:44:56 44° SE 01:45:54 47° ESE 01:52:07 10° NE
NOSS 3-4 (C) 3.9 01:45:02 43° SE 01:46:00 46° ESE 01:52:11 10° NE
Okean 2 Rocket 3.7 01:47:32 47° E 01:47:36 48° E 01:51:57 10° NNE
NOSS 3-2 (A) 4.4 01:41:16 10° NNW 01:48:39 61° NE 01:56:22 11° SE
Cosmos 1238 Rocket 3.3 01:48:36 10° N 01:52:02 53° NNW 01:52:02 53° NNW
Nadezhda 3 Rocket 4.1 01:46:46 10° NNW 01:52:50 57° W 01:54:00 50° SW
CZ-2C R/B 3.2 01:52:39 61° SSW 01:53:36 73° WSW 01:59:18 10° NNW
Cosmos 1782 Rocket 3.6 01:57:08 73° E 01:57:08 73° E 02:01:24 10° NNE
Cosmos 1943 3.2 01:57:59 10° NNW 02:03:42 79° ENE 02:05:21 48° SE
Cosmos 1606 3.5 02:00:16 10° NNW 02:03:11 44° NW 02:03:11 44° NW
CZ-2C R/B 3.3 01:59:15 10° N 02:04:07 40° WNW 02:05:09 36° W
CZ-4C R/B 2.9 01:58:42 10° NNW 02:05:52 83° NE 02:11:13 22° SE
Cosmos 1727 Rocket 4.4 02:02:35 10° N 02:08:44 57° E 02:11:24 33° SE
Cosmos 1603 4.4 02:06:04 10° NW 02:11:15 37° WSW 02:11:15 37° WSW
H-2A R/B 4.5 02:18:32 23° SSE 02:18:32 23° SSE 02:27:12 10° SE
PSLV R/B 3.5 02:14:01 10° NNE 02:18:13 69° ESE 02:18:21 68° ESE
Cosmos 1867 4.1 02:14:27 10° NNW 02:19:52 56° NE 02:23:54 17° SE
Cosmos 1975 Rocket 3.0 02:16:01 10° NNW 02:20:21 67° W 02:20:21 67° W
Cosmos 1242 Rocket 3.7 02:17:49 10° N 02:21:04 35° ENE 02:21:11 35° E
BREEZE-M DEB (TANK) 3.7 02:14:45 10° WNW 02:26:05 77° SSW 02:28:18 29° SE
Cosmos 921 Rocket 4.3 02:28:04 27° WNW 02:28:23 27° WNW 02:32:00 10° N
Cosmos 1607 4.1 02:25:52 10° NW 02:31:44 48° WSW 02:32:33 45° SW
Cosmos 1536 Rocket 4.2 02:27:59 10° N 02:32:14 49° E 02:33:31 37° SE
Cosmos 44 4.4 02:31:45 31° W 02:33:42 42° NW 02:38:54 10° NNE
Cosmos 1624 Rocket 4.2 02:33:01 45° SSE 02:34:17 59° ESE 02:39:26 10° NNE
ATLAS 3B R/B 4.5 02:34:33 10° WNW 02:36:40 13° W 02:36:40 13° W
IRAS Rocket 4.4 02:34:26 10° NNE 02:39:56 64° ESE 02:41:52 40° SSE
USA 238 DEB 4.5 02:34:30 10° NW 02:40:32 31° WSW 02:41:01 31° WSW
USA 238 4.5 02:34:36 10° NW 02:40:38 32° WSW 02:41:09 31° WSW
Cosmos 2151 Rocket 3.5 02:45:11 62° S 02:45:54 89° SE 02:50:23 10° N
Cosmos 1184 Rocket 3.3 02:46:42 53° NW 02:46:42 53° NW 02:49:36 10° N
NPP 3.8 02:41:02 10° NNE 02:46:26 68° ESE 02:48:21 40° S
Abrixas rocket 3.2 02:48:13 40° E 02:48:13 40° E 02:50:38 10° ENE
Cosmos 1812 3.9 02:44:39 10° N 02:48:18 38° ENE 02:49:48 27° SE
ADEOS 4.4 02:44:56 10° NNE 02:49:53 41° E 02:52:16 26° SSE
Iridium 4 Rocket 3.2 02:46:20 10° N 02:50:57 85° W 02:52:19 48° S
RESURS DK-1 2.2 02:50:29 69° SSW 02:50:58 90° SSW 02:55:10 10° NNE
Cosmos 1825 3.9 02:52:05 21° WNW 02:52:05 21° WNW 02:54:54 10° NNW
SL-16 R/B 4.1 02:47:49 10° SE 02:53:13 32° ENE 02:58:37 10° N
ERS-2 2.4 02:50:11 10° NNE 02:53:52 60° ESE 02:54:19 54° SE
ARIANE 5 R/B 4.1 02:51:24 10° NE 02:55:36 27° E 02:58:39 15° SE
USA 234 3.2 02:53:30 10° SE 02:59:58 65° SW 03:06:29 10° NW
Okean 1 Rocket 3.9 03:00:25 29° SSE 03:02:13 46° E 03:06:29 10° NNE
CBERS-1 4.0 02:58:31 10° NNE 03:03:41 82° ESE 03:05:44 38° S
Elektron 3 4.4 03:03:55 10° NW 03:07:05 82° NE 03:12:42 10° SE
CZ-2D R/B 3.7 03:06:44 10° NE 03:11:26 29° E 03:15:48 12° SSE
ATLAS 2A CENTAUR R/B 3.8 03:09:15 28° SSW 03:11:31 32° SSE 03:31:46 10° ESE
GP-B 3.1 03:08:19 10° N 03:12:47 80° E 03:14:34 36° S
NOSS 3-2 (C) 4.1 03:07:19 10° NW 03:14:41 56° WSW 03:21:42 13° SSE
SL-24 DEB 4.2 03:10:39 10° N 03:15:17 76° W 03:16:59 39° SSW
Cosmos 1821 Rocket 4.3 03:11:15 23° S 03:15:24 67° E 03:21:46 10° NNE
Cosmos 1844 Rocket 3.4 03:13:11 24° SSE 03:16:16 46° ESE 03:21:40 10° NE
CENTAUR R/B 3.8 03:08:55 10° NNW 03:16:31 55° NE 03:24:36 10° SE
Cosmos 2263 Rocket 3.1 03:15:21 25° WSW 03:17:58 39° WNW 03:23:17 10° N
Meteor 1-25 Rocket 4.2 03:17:40 33° SSW 03:20:18 72° W 03:26:06 10° N
SL-08 R/B 3.6 03:20:40 35° SSW 03:22:29 54° W 03:27:19 10° NNW
COSMOS 2406 3.2 03:17:18 10° NNW 03:23:08 88° ENE 03:28:53 10° SSE
Cosmos 1190 Rocket 3.9 03:19:18 10° NNW 03:24:30 69° WSW 03:27:34 24° S
Tiangong 1 1.4 03:31:29 46° SSE 03:31:29 46° SSE 03:33:55 10° ESE
Cosmos 2056 Rocket 4.0 03:29:03 28° WSW 03:31:27 47° WNW 03:36:32 10° N
IRS-1C 4.2 03:26:32 10° N 03:31:51 69° WNW 03:34:40 28° SSW
Cosmos 1602 4.4 03:30:47 23° SSE 03:32:54 49° E 03:36:38 10° NNE
Cosmos 2278 Rocket 3.6 03:28:32 12° SSE 03:32:56 31° ESE 03:37:51 10° NE
Spot 4 Rocket 4.0 03:31:33 10° NNE 03:36:44 85° WNW 03:39:46 25° SSW
UNK 4.3 03:32:04 23° SSW 03:37:05 46° SSE 03:40:33 10° ENE
Cosmos 1025 Rocket 3.9 03:33:56 10° N 03:38:05 47° E 03:42:14 10° SSE
Meteor 2-21 Rocket 4.5 03:33:57 20° S 03:38:17 81° E 03:44:24 10° N
Cosmos 407 Rocket 3.5 03:37:08 10° NNW 03:42:11 59° WSW 03:45:57 18° S
Cosmos 1536 3.7 03:39:54 16° SSE 03:42:51 46° E 03:46:46 10° NNE
ATLAS 5 CENTAUR R/B 4.3 03:38:16 10° NNW 03:43:30 32° NE 03:49:03 10° ESE
NOSS 2-2 (D) 4.5 03:43:08 21° S 03:45:26 40° ESE 03:49:46 10° NE
SL-27 R/B 2.5 03:42:03 10° NNW 03:45:39 61° WSW 03:47:30 26° S
USA 161 1.6 03:47:20 47° SW 03:47:42 51° W 03:50:32 10° NNW
Cosmos 676 Rocket 3.9 03:42:34 10° NNW 03:47:45 71° WSW 03:52:52 10° S
Cosmos 1809 Rocket 4.5 03:44:15 22° SSW 03:48:17 70° W 03:54:25 10° N
Meteor 2-4 Rocket 4.4 03:45:13 10° N 03:50:30 51° ENE 03:55:41 10° SSE
OTV 4 2.0 03:53:57 21° SSE 03:53:57 21° SSE 03:55:28 10° SE
CZ-4C R/B 4.0 03:48:33 10° WNW 03:53:55 22° WSW 03:56:17 19° SW
UNKNOWN OBJECT B 3.7 03:51:04 10° NNE 03:55:02 47° E 03:58:35 12° S
IRS-1D 3.4 03:52:33 10° NNE 03:57:41 86° WNW 04:01:28 18° SSW
NOSS 2-2 (C) 3.9 03:57:16 21° SSW 03:59:51 57° ESE 04:04:27 10° NE
Gbstr 26 Del rocket 2.7 03:59:17 25° SW 04:01:25 67° SE 04:05:07 10° ENE
Cosmos 724 4.4 03:55:26 10° NW 04:01:29 65° WSW 04:07:36 10° SSE
Resurs 1-4 Rocket 2.1 03:57:32 10° NNE 04:02:53 85° ESE 04:07:27 14° SSW
Meteor 2-16 Rocket 4.4 03:59:46 16° SSW 04:04:52 77° W 04:11:03 10° N
Meteor 1-19 Rocket 4.3 04:06:01 10° NNW 04:11:49 75° W 04:17:39 10° S
Cosmos 1633 2.5 04:11:40 16° S 04:14:24 83° W 04:18:03 10° N
EO 1 Del DPAF 3.5 04:12:09 13° S 04:15:26 51° W 04:19:16 10° NNW
Cosmos 1892 Rocket 3.6 04:11:37 10° N 04:15:59 84° E 04:20:19 10° S
Cosmos 1954 Rocket 4.2 04:11:21 10° NNW 04:16:20 50° WSW 04:21:18 10° S
MOS 1-B 4.4 04:11:52 10° NNE 04:17:42 84° WNW 04:23:23 11° SSW
USA 129 2.9 04:16:35 10° SSE 04:18:37 42° ENE 04:20:40 10° N
Meteor 1-11 Rocket 4.1 04:17:38 14° SSW 04:22:33 54° WNW 04:28:25 10° N
Abrixas rocket 3.7 04:21:29 10° W 04:24:34 33° NNW 04:27:39 10° NE
Cosmos 1356 3.4 04:22:42 13° SSW 04:25:51 81° W 04:29:25 10° N
NOSS 2-2 (E) 3.7 04:22:51 16° SW 04:26:10 73° NW 04:31:06 10° NNE
Cosmos 1447 Rocket 4.5 04:21:53 10° N 04:28:04 84° W 04:34:12 10° S
Cosmos 1400 Rocket 2.7 04:25:19 12° SSW 04:28:53 73° W 04:32:49 10° N
CZ-2C R/B 3.9 04:28:43 10° SSE 04:33:26 83° ENE 04:38:15 10° NNW
COSMOS 2487 2.6 04:30:20 10° NNW 04:33:55 57° WSW 04:37:27 10° S
ARIANE 5 R/B 3.3 04:30:16 10° N 04:34:46 35° WNW 04:39:00 11° SW
MTI 4.2 04:31:52 10° S 04:35:02 42° W 04:38:13 10° NNW
SL-16 R/B 3.0 04:30:48 10° SSW 04:36:40 42° W 04:42:33 10° NNW
CZ-4B R/B 4.0 04:33:48 10° NNE 04:38:15 51° E 04:42:37 10° S
Cosmos 614 Rocket 3.9 04:33:40 10° NNW 04:38:51 77° WSW 04:43:57 10° SSE
Cosmos 1833 Rocket 4.5 04:34:39 10° N 04:39:49 36° ENE 04:44:57 10° SE
Okean O Rocket 1.6 04:35:47 10° NNE 04:40:09 86° ESE 04:44:30 10° SSW
Thor Agena Rocket 3.8 04:37:03 10° SSE 04:42:14 75° ENE 04:47:23 10° N
SME Rocket 3.6 04:39:15 10° SSW 04:42:38 31° W 04:46:11 10° NW
Cosmos 1602 Rocket 4.0 04:43:28 10° N 04:47:47 65° E 04:52:05 10° SSE
PAYLOAD B 4.4 04:43:28 10° NNE 04:49:06 83° ESE 04:54:42 10° SSW
CZ-2D R/B 3.0 04:46:34 10° N 04:51:31 37° WNW 04:56:29 10° SW
Cosmos 1315 Rocket 2.9 04:49:09 10° SSW 04:53:13 66° W 04:57:17 10° N
Okean 2 3.7 04:49:27 10° NNW 04:53:22 45° W 04:57:17 10° SSW
CZ-2D R/B 3.9 04:52:43 10° N 04:56:31 43° WNW 05:00:19 10° SW
BREEZE-M DEB (TANK) 3.5 04:52:54 10° SW 04:57:16 50° SE 05:00:43 10° ENE
Cosmos 1844 Rocket 4.0 04:55:36 10° WSW 05:00:21 27° NW 05:05:09 10° N
